Location: Running Springs
(34.2078°N, 117.1092°W)
Time: 14:52:43
(UTC+00:00)

ATLAS 2AS CENTAUR R/B - Pass Details

Date: 13 April 2024
Orbit: 1016 x 1195 km, 63.7° (Epoch: 27 May)

Event Time Altitude Azimuth Distance (km) Brightness Sun altitude
Exits shadow 12:37:47 10° 242° (WSW) 3,093 4.5 -9.1°
Maximum altitude 12:44:35 38° 308° (NW) 1,696 3.5 -7.7°
Drops below altitude 10° 12:51:13 10° 15° (NNE) 3,011 5.5 -6.4°
Sets 12:54:07 0° 24° (NNE) 3,945 6.3 -5.8°
